Location: Bu�n Treun
(12.1333°N, 108.3167°E)
Time: 23:49:55
(UTC+00:00)

Cosmos 1980 Rocket - Pass Details

Date: 13 July 2020
Orbit: 828 x 851 km, 71.0° (Epoch: 03 August)

Event Time Altitude Azimuth Distance (km) Brightness Sun altitude
Rises 20:46:30 0° 337° (NNW) 3,400 5.4 -23.4°
Reaches altitude 10° 20:48:59 10° 334° (NNW) 2,462 4.7 -22.9°
Maximum altitude 20:54:32 60° 255° (WSW) 954 2.1 -21.7°
Drops below altitude 10° 21:00:04 10° 176° (S) 2,447 4.4 -20.6°
Sets 21:02:31 0° 172° (S) 3,377 5.1 -20.0°
